Wetterdaten: Freitag, 06.11.2015
Datum Zeit Temp. A. Mod.Schuppen Feuchte A. Luftdruck Regen Wind Richtung Richtung Sonnenschein Helligkeit Solar
06.11.2015 00:00 13,6 C 12,6 C 84 % 1018,0 hPa 0,0 l/m 12,2 km/h (2 Bft) SO22.5 145 0 min 0 lux 0 W/m
06.11.2015 00:05 13,5 C 12,5 C 84 % 1018,0 hPa 0,0 l/m 8,6 km/h (2 Bft) SO45 130 0 min 0 lux 0 W/m
06.11.2015 00:10 13,5 C 12,5 C 84 % 1018,0 hPa 0,4 l/m 8,6 km/h (2 Bft) SO45 130 0 min 0 lux 0 W/m
06.11.2015 00:15 13,5 C 12,5 C 85 % 1018,0 hPa 0,0 l/m 8,6 km/h (2 Bft) SO45 130 0 min 0 lux 0 W/m
06.11.2015 00:20 13,4 C 12,6 C 85 % 1018,0 hPa 0,0 l/m 8,6 km/h (2 Bft) SO45 130 0 min 0 lux 0 W/m
06.11.2015 00:25 13,4 C 12,6 C 85 % 1018,0 hPa 0,0 l/m 14,8 km/h (3 Bft) S-SO22.5 155 0 min 0 lux 0 W/m
06.11.2015 00:30 13,5 C 12,7 C 85 % 1018,0 hPa 0,4 l/m 14,8 km/h (3 Bft) S-SO22.5 155 0 min 0 lux 0 W/m
06.11.2015 00:35 13,4 C 12,7 C 85 % 1018,0 hPa 0,0 l/m 14,8 km/h (3 Bft) S-SO22.5 155 0 min 0 lux 0 W/m
06.11.2015 00:40 13,4 C 12,6 C 85 % 1018,0 hPa 0,0 l/m 14,8 km/h (3 Bft) S-SO22.5 155 0 min 0 lux 0 W/m
06.11.2015 00:45 13,4 C 12,6 C 85 % 1018,0 hPa 0,4 l/m 14,8 km/h (3 Bft) S-SO22.5 155 0 min 0 lux 0 W/m
06.11.2015 00:50 13,4 C 12,6 C 86 % 1018,0 hPa 0,0 l/m 7,4 km/h (2 Bft) SO22.5 145 0 min 0 lux 0 W/m
06.11.2015 00:55 13,4 C 12,6 C 86 % 1018,0 hPa 0,0 l/m 11,1 km/h (2 Bft) S-SO45 150 0 min 0 lux 0 W/m
06.11.2015 01:00 13,4 C 12,7 C 86 % 1018,0 hPa 0,0 l/m 10,5 km/h (2 Bft) S-SO22.5 155 0 min 0 lux 0 W/m
06.11.2015 01:05 13,4 C 12,7 C 86 % 1018,0 hPa 0,0 l/m 11,0 km/h (2 Bft) S-SO22.5 155 0 min 0 lux 0 W/m
06.11.2015 01:10 13,4 C 12,7 C 86 % 1018,0 hPa 0,0 l/m 11,0 km/h (2 Bft) S-SO22.5 155 0 min 0 lux 0 W/m
06.11.2015 01:15 13,4 C 12,7 C 86 % 1018,0 hPa 0,0 l/m 11,0 km/h (2 Bft) S-SO22.5 155 0 min 0 lux 0 W/m
06.11.2015 01:20 13,4 C 12,7 C 86 % 1018,0 hPa 0,0 l/m 16,5 km/h (3 Bft) S-SO45 150 0 min 0 lux 0 W/m
06.11.2015 01:25 13,4 C 12,7 C 86 % 1018,0 hPa 0,0 l/m 16,5 km/h (3 Bft) S-SO45 150 0 min 0 lux 0 W/m
06.11.2015 01:30 13,4 C 12,7 C 86 % 1018,0 hPa 0,0 l/m 16,8 km/h (3 Bft) S-SO45 150 0 min 0 lux 0 W/m
06.11.2015 01:35 13,4 C 12,7 C 86 % 1018,0 hPa 0,0 l/m 9,1 km/h (2 Bft) SO45 140 0 min 0 lux 0 W/m
06.11.2015 01:40 13,4 C 12,7 C 86 % 1018,0 hPa 0,0 l/m 9,1 km/h (2 Bft) SO45 140 0 min 0 lux 0 W/m
06.11.2015 01:45 13,4 C 12,7 C 86 % 1018,0 hPa 0,0 l/m 9,1 km/h (2 Bft) SO45 140 0 min 0 lux 0 W/m
06.11.2015 01:50 13,4 C 12,7 C 86 % 1018,0 hPa 0,0 l/m 15,2 km/h (3 Bft) S-SO22.5 150 0 min 0 lux 0 W/m
06.11.2015 01:55 13,4 C 12,7 C 86 % 1018,0 hPa 0,0 l/m 15,2 km/h (3 Bft) S-SO22.5 150 0 min 0 lux 0 W/m
06.11.2015 02:00 13,4 C 12,7 C 86 % 1018,0 hPa 0,0 l/m 14,5 km/h (3 Bft) S-SO22.5 150 0 min 0 lux 0 W/m
06.11.2015 02:05 13,4 C 12,7 C 86 % 1018,0 hPa 0,0 l/m 14,5 km/h (3 Bft) S-SO22.5 150 0 min 0 lux 0 W/m
06.11.2015 02:10 13,4 C 12,6 C 86 % 1018,0 hPa 0,0 l/m 12,4 km/h (2 Bft) S-SO45 155 0 min 0 lux 0 W/m
06.11.2015 02:15 13,4 C 12,6 C 86 % 1018,0 hPa 0,0 l/m 12,4 km/h (2 Bft) S-SO45 155 0 min 0 lux 0 W/m
06.11.2015 02:20 13,4 C 12,5 C 86 % 1018,0 hPa 0,0 l/m 12,4 km/h (2 Bft) S-SO45 155 0 min 0 lux 0 W/m
06.11.2015 02:25 13,4 C 12,5 C 86 % 1018,0 hPa 0,0 l/m 14,2 km/h (3 Bft) S-SO45 155 0 min 0 lux 0 W/m
06.11.2015 02:30 13,4 C 12,6 C 86 % 1018,0 hPa 0,0 l/m 16,8 km/h (3 Bft) S-SO45 155 0 min 0 lux 0 W/m
06.11.2015 02:35 13,4 C 12,6 C 86 % 1018,0 hPa 0,0 l/m 16,8 km/h (3 Bft) S-SO45 155 0 min 0 lux 0 W/m
06.11.2015 02:40 13,4 C 12,6 C 86 % 1018,0 hPa 0,0 l/m 10,5 km/h (2 Bft) S-SO22.5 160 0 min 0 lux 0 W/m
06.11.2015 02:45 13,4 C 12,6 C 86 % 1018,0 hPa 0,0 l/m 10,5 km/h (2 Bft) S-SO22.5 160 0 min 0 lux 0 W/m
06.11.2015 02:50 13,4 C 12,6 C 86 % 1018,0 hPa 0,0 l/m 10,5 km/h (2 Bft) S-SO22.5 160 0 min 0 lux 0 W/m
06.11.2015 02:55 13,4 C 12,6 C 86 % 1018,0 hPa 0,0 l/m 16,3 km/h (3 Bft) S-SO22.5 165 0 min 0 lux 0 W/m
06.11.2015 03:00 13,4 C 12,7 C 86 % 1018,0 hPa 0,0 l/m 16,8 km/h (3 Bft) S-SO22.5 165 0 min 0 lux 0 W/m
06.11.2015 03:05 13,5 C 12,7 C 86 % 1018,0 hPa 0,0 l/m 16,8 km/h (3 Bft) S-SO22.5 165 0 min 0 lux 0 W/m
06.11.2015 03:10 13,5 C 12,8 C 86 % 1018,0 hPa 0,0 l/m 16,7 km/h (3 Bft) S22.5 170 0 min 0 lux 0 W/m
06.11.2015 03:15 13,5 C 12,8 C 86 % 1018,0 hPa 0,0 l/m 17,5 km/h (3 Bft) S45 170 0 min 0 lux 0 W/m
06.11.2015 03:20 13,6 C 12,8 C 86 % 1017,0 hPa 0,0 l/m 17,5 km/h (3 Bft) S45 170 0 min 0 lux 0 W/m
06.11.2015 03:25 13,6 C 12,8 C 86 % 1017,0 hPa 0,0 l/m 22,3 km/h (4 Bft) S45 170 0 min 0 lux 0 W/m
06.11.2015 03:30 13,6 C 12,8 C 86 % 1017,0 hPa 0,0 l/m 14,1 km/h (3 Bft) S-SO22.5 165 0 min 0 lux 0 W/m
06.11.2015 03:35 13,6 C 12,8 C 86 % 1017,0 hPa 0,0 l/m 14,1 km/h (3 Bft) S-SO22.5 165 0 min 0 lux 0 W/m
06.11.2015 03:40 13,6 C 12,9 C 85 % 1017,0 hPa 0,0 l/m 16,1 km/h (3 Bft) S-SO22.5 165 0 min 0 lux 0 W/m
06.11.2015 03:45 13,6 C 12,9 C 85 % 1017,0 hPa 0,0 l/m 16,1 km/h (3 Bft) S-SO22.5 165 0 min 0 lux 0 W/m
06.11.2015 03:50 13,7 C 12,9 C 85 % 1017,0 hPa 0,0 l/m 22,8 km/h (4 Bft) S-SO45 160 0 min 0 lux 0 W/m
06.11.2015 03:55 13,7 C 12,9 C 85 % 1017,0 hPa 0,0 l/m 13,3 km/h (3 Bft) S-SO22.5 160 0 min 0 lux 0 W/m
06.11.2015 04:00 13,7 C 12,9 C 85 % 1017,0 hPa 0,0 l/m 13,3 km/h (3 Bft) S-SO22.5 160 0 min 0 lux 0 W/m
06.11.2015 04:05 13,7 C 12,9 C 85 % 1017,0 hPa 0,0 l/m 13,2 km/h (3 Bft) S-SO22.5 165 0 min 0 lux 0 W/m
06.11.2015 04:10 13,7 C 12,9 C 85 % 1017,0 hPa 0,0 l/m 13,2 km/h (3 Bft) S-SO22.5 165 0 min 0 lux 0 W/m
06.11.2015 04:15 13,7 C 12,9 C 85 % 1017,0 hPa 0,0 l/m 13,2 km/h (3 Bft) S-SO22.5 165 0 min 0 lux 0 W/m
06.11.2015 04:20 13,7 C 12,9 C 85 % 1017,0 hPa 0,0 l/m 20,6 km/h (4 Bft) S22.5 170 0 min 0 lux 0 W/m
06.11.2015 04:25 13,7 C 13,0 C 85 % 1017,0 hPa 0,0 l/m 20,6 km/h (4 Bft) S22.5 170 0 min 0 lux 0 W/m
06.11.2015 04:30 13,8 C 13,0 C 85 % 1017,0 hPa 0,0 l/m 20,6 km/h (4 Bft) S22.5 170 0 min 0 lux 0 W/m
06.11.2015 04:35 13,8 C 13,0 C 85 % 1017,0 hPa 0,0 l/m 20,6 km/h (4 Bft) S22.5 170 0 min 0 lux 0 W/m
06.11.2015 04:40 13,8 C 13,1 C 84 % 1017,0 hPa 0,0 l/m 15,6 km/h (3 Bft) S-SO22.5 160 0 min 0 lux 0 W/m
06.11.2015 04:45 13,8 C 13,3 C 84 % 1017,0 hPa 0,0 l/m 15,6 km/h (3 Bft) S-SO22.5 160 0 min 0 lux 0 W/m
06.11.2015 04:50 13,8 C 13,3 C 84 % 1017,0 hPa 0,0 l/m 15,6 km/h (3 Bft) S-SO22.5 160 0 min 0 lux 0 W/m
06.11.2015 04:55 13,9 C 13,4 C 84 % 1017,0 hPa 0,0 l/m 15,6 km/h (3 Bft) S-SO22.5 160 0 min 0 lux 0 W/m
06.11.2015 05:00 13,9 C 13,3 C 84 % 1017,0 hPa 0,0 l/m 15,1 km/h (3 Bft) S-SO22.5 160 0 min 0 lux 0 W/m
06.11.2015 05:05 13,8 C 13,3 C 84 % 1017,0 hPa 0,0 l/m 20,1 km/h (4 Bft) S-SO22.5 160 0 min 0 lux 0 W/m
06.11.2015 05:10 13,8 C 13,3 C 84 % 1017,0 hPa 0,0 l/m 20,1 km/h (4 Bft) S-SO22.5 160 0 min 0 lux 0 W/m
06.11.2015 05:15 13,8 C 13,3 C 84 % 1017,0 hPa 0,0 l/m 20,1 km/h (4 Bft) S-SO22.5 160 0 min 0 lux 0 W/m
06.11.2015 05:20 13,8 C 13,2 C 84 % 1017,0 hPa 0,0 l/m 20,1 km/h (4 Bft) S-SO22.5 160 0 min 0 lux 0 W/m
06.11.2015 05:25 13,8 C 13,2 C 84 % 1017,0 hPa 0,0 l/m 20,1 km/h (4 Bft) S-SO22.5 160 0 min 0 lux 0 W/m
06.11.2015 05:30 13,8 C 13,3 C 84 % 1017,0 hPa 0,0 l/m 20,1 km/h (4 Bft) S-SO22.5 160 0 min 0 lux 0 W/m
06.11.2015 05:35 13,8 C 13,4 C 84 % 1017,0 hPa 0,0 l/m 20,1 km/h (4 Bft) S-SO22.5 160 0 min 0 lux 0 W/m
06.11.2015 05:40 13,9 C 13,4 C 84 % 1017,0 hPa 0,0 l/m 20,1 km/h (4 Bft) S-SO22.5 160 0 min 0 lux 0 W/m
06.11.2015 05:45 14,0 C 13,5 C 83 % 1016,9 hPa 0,0 l/m 20,1 km/h (4 Bft) S-SO22.5 160 0 min 0 lux 0 W/m
06.11.2015 05:50 14,0 C 13,5 C 83 % 1016,9 hPa 0,0 l/m 20,1 km/h (4 Bft) S-SO22.5 160 0 min 0 lux 0 W/m
06.11.2015 05:55 14,0 C 13,5 C 83 % 1016,9 hPa 0,0 l/m 14,8 km/h (3 Bft) S-SO22.5 160 0 min 0 lux 0 W/m
06.11.2015 06:00 14,0 C 13,6 C 83 % 1016,9 hPa 0,0 l/m 12,1 km/h (2 Bft) S-SO45 160 0 min 0 lux 0 W/m
06.11.2015 06:05 14,0 C 13,6 C 83 % 1016,9 hPa 0,0 l/m 12,1 km/h (2 Bft) S-SO45 160 0 min 0 lux 0 W/m
06.11.2015 06:09 14,0 C 13,5 C 83 % 1016,9 hPa 0,0 l/m 12,1 km/h (2 Bft) S-SO45 160 0 min 0 lux 0 W/m
06.11.2015 06:15 14,0 C 13,5 C 83 % 1016,9 hPa 0,0 l/m 12,1 km/h (2 Bft) S-SO45 160 0 min 0 lux 0 W/m
06.11.2015 06:20 13,9 C 13,5 C 83 % 1017,0 hPa 0,0 l/m 13,6 km/h (3 Bft) S22.5 170 0 min 0 lux 0 W/m
06.11.2015 06:25 13,9 C 13,5 C 83 % 1017,0 hPa 0,0 l/m 11,9 km/h (2 Bft) S22.5 170 0 min 0 lux 0 W/m
06.11.2015 06:30 13,9 C 13,5 C 83 % 1017,0 hPa 0,0 l/m 11,9 km/h (2 Bft) S22.5 170 0 min 0 lux 0 W/m
06.11.2015 06:35 13,9 C 13,5 C 84 % 1017,0 hPa 0,0 l/m 11,9 km/h (2 Bft) S22.5 170 0 min 0 lux 0 W/m
06.11.2015 06:40 13,9 C 13,5 C 84 % 1017,0 hPa 0,0 l/m 12,3 km/h (2 Bft) S22.5 175 0 min 0 lux 0 W/m
06.11.2015 06:45 13,9 C 13,5 C 84 % 1017,0 hPa 0,0 l/m 13,3 km/h (3 Bft) S22.5 175 0 min 0 lux 0 W/m
06.11.2015 06:50 14,0 C 13,5 C 84 % 1016,9 hPa 0,0 l/m 13,3 km/h (3 Bft) S22.5 175 0 min 0 lux 0 W/m
06.11.2015 06:55 14,0 C 13,6 C 84 % 1016,9 hPa 0,0 l/m 13,3 km/h (3 Bft) S22.5 175 0 min 0 lux 0 W/m
06.11.2015 07:00 14,1 C 13,7 C 83 % 1018,0 hPa 0,0 l/m 19,3 km/h (3 Bft) S22.5 170 0 min 0 lux 0 W/m
06.11.2015 07:05 14,0 C 13,7 C 83 % 1018,0 hPa 0,0 l/m 19,3 km/h (3 Bft) S22.5 170 0 min 0 lux 0 W/m
06.11.2015 07:10 14,0 C 13,6 C 83 % 1018,0 hPa 0,0 l/m 12,8 km/h (3 Bft) S-SO22.5 165 0 min 0 lux 0 W/m
06.11.2015 07:15 14,0 C 13,6 C 83 % 1018,0 hPa 0,0 l/m 12,8 km/h (3 Bft) S-SO22.5 165 0 min 0 lux 0 W/m
06.11.2015 07:20 14,0 C 13,5 C 83 % 1018,0 hPa 0,0 l/m 14,3 km/h (3 Bft) S22.5 170 0 min 0 lux 0 W/m
06.11.2015 07:25 14,0 C 13,5 C 83 % 1018,0 hPa 0,0 l/m 10,5 km/h (2 Bft) S-SO22.5 165 0 min 0 lux 0 W/m
06.11.2015 07:30 14,0 C 13,5 C 83 % 1018,0 hPa 0,0 l/m 10,5 km/h (2 Bft) S-SO22.5 165 0 min 0 lux 0 W/m
06.11.2015 07:35 14,0 C 13,5 C 83 % 1018,0 hPa 0,0 l/m 10,5 km/h (2 Bft) S-SO22.5 165 0 min 184 lux 0 W/m
06.11.2015 07:40 14,0 C 13,6 C 83 % 1018,0 hPa 0,0 l/m 8,7 km/h (2 Bft) S-SO22.5 160 0 min 184 lux 0 W/m
06.11.2015 07:45 14,0 C 13,6 C 83 % 1018,0 hPa 0,0 l/m 8,9 km/h (2 Bft) S 170 0 min 184 lux 1 W/m
06.11.2015 07:50 13,9 C 13,6 C 84 % 1018,0 hPa 0,0 l/m 9,2 km/h (2 Bft) S 170 0 min 310 lux 2 W/m
06.11.2015 07:55 13,9 C 13,6 C 84 % 1018,0 hPa 0,0 l/m 9,2 km/h (2 Bft) S 170 0 min 499 lux 3 W/m
06.11.2015 08:00 13,9 C 13,7 C 84 % 1018,0 hPa 0,0 l/m 9,3 km/h (2 Bft) S22.5 180 0 min 499 lux 3 W/m
06.11.2015 08:05 13,9 C 13,8 C 84 % 1018,0 hPa 0,0 l/m 11,7 km/h (2 Bft) S22.5 185 0 min 499 lux 3 W/m
06.11.2015 08:10 13,9 C 13,9 C 84 % 1018,0 hPa 0,0 l/m 11,7 km/h (2 Bft) S22.5 185 0 min 895 lux 6 W/m
06.11.2015 08:15 14,1 C 13,9 C 84 % 1018,0 hPa 0,0 l/m 11,7 km/h (2 Bft) S22.5 185 0 min 895 lux 6 W/m
06.11.2015 08:20 14,1 C 14,1 C 84 % 1018,0 hPa 0,0 l/m 11,7 km/h (2 Bft) S22.5 185 0 min 895 lux 6 W/m
06.11.2015 08:25 14,1 C 14,2 C 84 % 1018,0 hPa 0,0 l/m 11,7 km/h (2 Bft) S22.5 185 0 min 895 lux 6 W/m
06.11.2015 08:30 14,1 C 14,3 C 84 % 1019,0 hPa 0,0 l/m 11,7 km/h (2 Bft) S22.5 185 0 min 895 lux 6 W/m
06.11.2015 08:35 14,1 C 14,4 C 84 % 1019,0 hPa 0,0 l/m 11,7 km/h (2 Bft) S22.5 185 0 min 895 lux 6 W/m
06.11.2015 08:40 14,1 C 14,4 C 84 % 1019,0 hPa 0,0 l/m 11,7 km/h (2 Bft) S22.5 185 0 min 895 lux 6 W/m
06.11.2015 08:45 14,1 C 14,4 C 84 % 1019,0 hPa 0,0 l/m 11,7 km/h (2 Bft) S22.5 185 0 min 895 lux 6 W/m
06.11.2015 08:50 14,1 C 14,5 C 84 % 1019,0 hPa 0,0 l/m 11,7 km/h (2 Bft) S22.5 185 0 min 895 lux 6 W/m
06.11.2015 08:55 14,1 C 14,7 C 84 % 1019,0 hPa 0,0 l/m 11,7 km/h (2 Bft) S22.5 185 0 min 895 lux 6 W/m
06.11.2015 09:00 14,1 C 14,8 C 84 % 1019,0 hPa 0,0 l/m 11,7 km/h (2 Bft) S22.5 185 0 min 895 lux 6 W/m
06.11.2015 09:05 14,1 C 15,0 C 84 % 1019,0 hPa 0,0 l/m 11,7 km/h (2 Bft) S22.5 185 0 min 7,54 klux 52 W/m
06.11.2015 09:10 14,1 C 15,5 C 84 % 1019,0 hPa 0,0 l/m 15,5 km/h (3 Bft) S-SW45 205 0 min 7,54 klux 52 W/m
06.11.2015 09:15 14,1 C 15,7 C 84 % 1019,0 hPa 0,0 l/m 15,5 km/h (3 Bft) S-SW45 205 0 min 7,54 klux 52 W/m
06.11.2015 09:20 14,1 C 15,8 C 84 % 1019,0 hPa 0,0 l/m 17,7 km/h (3 Bft) S-SW45 210 0 min 7,54 klux 52 W/m
06.11.2015 09:25 14,1 C 16,3 C 84 % 1019,0 hPa 0,0 l/m 14,1 km/h (3 Bft) S-SW45 205 0 min 9,7 klux 66 W/m
06.11.2015 09:30 14,1 C 16,7 C 84 % 1019,0 hPa 0,0 l/m 15,6 km/h (3 Bft) S-SW22.5 205 0 min 16,9 klux 116 W/m
06.11.2015 09:35 14,1 C 17,7 C 84 % 1019,0 hPa 0,0 l/m 15,3 km/h (3 Bft) S-SW22.5 210 0 min 11,5 klux 79 W/m
06.11.2015 09:40 14,1 C 17,6 C 84 % 1019,0 hPa 0,0 l/m 15,3 km/h (3 Bft) S-SW22.5 210 0 min 8,93 klux 61 W/m
06.11.2015 09:45 14,1 C 17,4 C 84 % 1019,0 hPa 0,0 l/m 15,3 km/h (3 Bft) S-SW22.5 210 0 min 8,93 klux 61 W/m
06.11.2015 09:50 14,1 C 17,1 C 84 % 1019,0 hPa 0,0 l/m 15,3 km/h (3 Bft) S-SW22.5 210 0 min 8,93 klux 61 W/m
06.11.2015 09:55 14,1 C 17,2 C 84 % 1019,0 hPa 0,0 l/m 15,3 km/h (3 Bft) S-SW22.5 210 0 min 6,56 klux 45 W/m
06.11.2015 10:00 14,1 C 16,9 C 84 % 1019,0 hPa 0,0 l/m 15,3 km/h (3 Bft) S-SW22.5 210 0 min 6,56 klux 45 W/m
06.11.2015 10:05 14,1 C 17,0 C 84 % 1019,0 hPa 0,0 l/m 14,5 km/h (3 Bft) S-SW22.5 195 0 min 8,31 klux 57 W/m
06.11.2015 10:10 14,1 C 17,2 C 84 % 1019,0 hPa 0,0 l/m 14,5 km/h (3 Bft) S-SW22.5 195 0 min 10,7 klux 73 W/m
06.11.2015 10:15 14,1 C 17,6 C 84 % 1019,0 hPa 0,0 l/m 9,4 km/h (2 Bft) S22.5 180 0 min 9,3 klux 63 W/m
06.11.2015 10:20 14,1 C 17,7 C 84 % 1019,0 hPa 0,0 l/m 9,4 km/h (2 Bft) S22.5 180 0 min 8,73 klux 60 W/m
06.11.2015 10:25 14,1 C 17,7 C 84 % 1019,0 hPa 0,0 l/m 9,4 km/h (2 Bft) S22.5 180 0 min 6,79 klux 46 W/m
06.11.2015 10:30 14,1 C 17,3 C 84 % 1019,0 hPa 0,0 l/m 12,1 km/h (2 Bft) S45 185 0 min 7,60 klux 52 W/m
06.11.2015 10:35 14,1 C 17,2 C 84 % 1019,0 hPa 0,0 l/m 12,1 km/h (2 Bft) S45 185 0 min 7,60 klux 52 W/m
06.11.2015 10:40 14,1 C 17,3 C 84 % 1019,0 hPa 0,0 l/m 12,6 km/h (3 Bft) S-SW45 200 0 min 7,35 klux 50 W/m
06.11.2015 10:45 14,1 C 17,3 C 84 % 1019,0 hPa 0,0 l/m 12,6 km/h (3 Bft) S-SW45 200 0 min 8,89 klux 61 W/m
06.11.2015 10:50 15,3 C 17,5 C 83 % 1018,9 hPa 0,0 l/m 12,6 km/h (3 Bft) S-SW45 200 0 min 8,26 klux 56 W/m
06.11.2015 10:55 15,3 C 17,5 C 83 % 1018,9 hPa 0,0 l/m 12,6 km/h (3 Bft) S-SW45 200 0 min 7,32 klux 50 W/m
06.11.2015 11:00 15,3 C 17,5 C 83 % 1018,9 hPa 0,0 l/m 12,6 km/h (3 Bft) S-SW45 200 0 min 7,31 klux 50 W/m
06.11.2015 11:05 15,3 C 17,5 C 83 % 1018,9 hPa 0,0 l/m 12,0 km/h (2 Bft) S-SW45 200 0 min 8,85 klux 61 W/m
06.11.2015 11:10 15,3 C 17,5 C 83 % 1018,9 hPa 0,0 l/m 14,2 km/h (3 Bft) S-SW45 210 0 min 8,54 klux 58 W/m
06.11.2015 11:15 15,3 C 17,7 C 83 % 1018,9 hPa 0,0 l/m 12,2 km/h (2 Bft) S-SW22.5 195 0 min 10,3 klux 70 W/m
06.11.2015 11:20 15,3 C 17,9 C 83 % 1018,9 hPa 0,0 l/m 12,2 km/h (2 Bft) S-SW22.5 195 0 min 12,2 klux 83 W/m
06.11.2015 11:25 15,5 C 18,5 C 82 % 1018,9 hPa 0,0 l/m 11,5 km/h (2 Bft) S-SW45 195 0 min 14,5 klux 99 W/m
06.11.2015 11:30 15,6 C 19,2 C 82 % 1018,9 hPa 0,0 l/m 11,5 km/h (2 Bft) S-SW45 195 0 min 14,3 klux 98 W/m
06.11.2015 11:35 15,7 C 19,3 C 82 % 1018,9 hPa 0,0 l/m 11,5 km/h (2 Bft) S-SW45 195 0 min 14,7 klux 101 W/m
06.11.2015 11:40 15,8 C 19,7 C 82 % 1018,9 hPa 0,0 l/m 11,5 km/h (2 Bft) S-SW45 195 0 min 14,5 klux 99 W/m
06.11.2015 11:45 15,9 C 20,0 C 82 % 1018,9 hPa 0,0 l/m 11,5 km/h (2 Bft) S-SW45 195 0 min 16,4 klux 112 W/m
06.11.2015 11:50 16,0 C 20,1 C 81 % 1018,9 hPa 0,0 l/m 11,5 km/h (2 Bft) S-SW45 195 0 min 16,5 klux 113 W/m
06.11.2015 11:55 16,0 C 20,4 C 81 % 1018,9 hPa 0,0 l/m 11,5 km/h (2 Bft) S-SW45 195 0 min 16,9 klux 116 W/m
06.11.2015 12:00 16,0 C 20,6 C 81 % 1018,9 hPa 0,0 l/m 13,5 km/h (3 Bft) S22.5 180 0 min 17,7 klux 121 W/m
06.11.2015 12:05 16,3 C 21,3 C 81 % 1018,9 hPa 0,0 l/m 11,5 km/h (2 Bft) S-SW22.5 200 5 min 33,3 klux 228 W/m
06.11.2015 12:10 16,4 C 22,9 C 80 % 1018,9 hPa 0,0 l/m 13,5 km/h (3 Bft) S-SW45 205 0 min 17,6 klux 120 W/m
06.11.2015 12:15 16,4 C 22,1 C 80 % 1018,9 hPa 0,0 l/m 12,6 km/h (3 Bft) S-SW45 195 0 min 16,7 klux 114 W/m
06.11.2015 12:20 16,5 C 21,9 C 80 % 1018,9 hPa 0,0 l/m 12,6 km/h (3 Bft) S-SW45 195 0 min 16,8 klux 115 W/m
06.11.2015 12:25 16,5 C 22,2 C 79 % 1018,9 hPa 0,0 l/m 18,8 km/h (3 Bft) S-SW45 205 0 min 27,1 klux 185 W/m
06.11.2015 12:30 16,6 C 22,8 C 79 % 1018,9 hPa 0,0 l/m 13,8 km/h (3 Bft) S22.5 190 0 min 27,1 klux 185 W/m
06.11.2015 12:35 16,8 C 23,4 C 78 % 1018,9 hPa 0,0 l/m 18,0 km/h (3 Bft) S-SW45 205 0 min 25,5 klux 174 W/m
06.11.2015 12:40 16,9 C 23,4 C 77 % 1018,9 hPa 0,0 l/m 21,0 km/h (4 Bft) S-SW45 200 0 min 22,7 klux 155 W/m
06.11.2015 12:45 16,9 C 23,1 C 77 % 1018,9 hPa 0,0 l/m 21,0 km/h (4 Bft) S-SW45 200 0 min 20,9 klux 143 W/m
06.11.2015 12:50 17,0 C 22,6 C 76 % 1018,9 hPa 0,0 l/m 20,6 km/h (4 Bft) S-SW67.5 205 0 min 19,9 klux 136 W/m
06.11.2015 12:55 17,0 C 22,4 C 76 % 1018,9 hPa 0,0 l/m 18,0 km/h (3 Bft) S-SW45 210 0 min 19,0 klux 130 W/m
06.11.2015 13:00 17,0 C 21,7 C 76 % 1018,9 hPa 0,0 l/m 22,0 km/h (4 Bft) SW45 215 0 min 18,9 klux 129 W/m
06.11.2015 13:05 17,0 C 21,7 C 76 % 1018,9 hPa 0,0 l/m 19,5 km/h (3 Bft) SW22.5 220 0 min 18,1 klux 124 W/m
06.11.2015 13:10 17,0 C 22,0 C 76 % 1018,9 hPa 0,0 l/m 18,5 km/h (3 Bft) SW45 220 0 min 20,3 klux 139 W/m
06.11.2015 13:15 17,1 C 22,1 C 75 % 1018,9 hPa 0,0 l/m 20,0 km/h (4 Bft) SW45 215 0 min 24,0 klux 164 W/m
06.11.2015 13:20 17,2 C 21,9 C 74 % 1018,9 hPa 0,0 l/m 22,4 km/h (4 Bft) SW45 220 0 min 22,7 klux 155 W/m
06.11.2015 13:25 17,1 C 21,2 C 74 % 1018,9 hPa 0,0 l/m 23,5 km/h (4 Bft) SW67.5 225 0 min 17,1 klux 117 W/m
06.11.2015 13:30 17,1 C 20,7 C 73 % 1018,9 hPa 0,4 l/m 24,6 km/h (4 Bft) SW45 220 0 min 19,4 klux 133 W/m
06.11.2015 13:35 17,0 C 20,5 C 74 % 1018,9 hPa 0,0 l/m 29,2 km/h (5 Bft) SW45 220 0 min 17,8 klux 122 W/m
06.11.2015 13:40 17,0 C 20,5 C 74 % 1018,9 hPa 0,0 l/m 20,5 km/h (4 Bft) SW22.5 225 0 min 18,9 klux 129 W/m
06.11.2015 13:45 17,0 C 20,4 C 74 % 1018,9 hPa 0,0 l/m 23,5 km/h (4 Bft) SW22.5 220 0 min 20,8 klux 142 W/m
06.11.2015 13:50 17,2 C 20,6 C 74 % 1018,9 hPa 0,0 l/m 20,3 km/h (4 Bft) S-SW45 210 5 min 26,4 klux 181 W/m
06.11.2015 13:54 17,2 C 22,4 C 74 % 1018,9 hPa 0,0 l/m 20,3 km/h (4 Bft) S-SW45 210 0 min 24,3 klux 166 W/m
06.11.2015 14:00 17,3 C 21,6 C 73 % 1018,9 hPa 0,0 l/m 16,3 km/h (3 Bft) SW22.5 215 0 min 16,9 klux 116 W/m
06.11.2015 14:05 17,3 C 21,3 C 73 % 1018,9 hPa 0,0 l/m 15,9 km/h (3 Bft) SW45 220 0 min 14,4 klux 98 W/m
06.11.2015 14:10 17,2 C 19,8 C 73 % 1018,9 hPa 0,0 l/m 15,9 km/h (3 Bft) SW45 220 0 min 15,3 klux 105 W/m
06.11.2015 14:15 17,2 C 19,7 C 73 % 1018,9 hPa 0,0 l/m 27,0 km/h (5 Bft) SW45 225 0 min 15,9 klux 109 W/m
06.11.2015 14:20 17,2 C 19,7 C 73 % 1018,9 hPa 0,0 l/m 27,4 km/h (5 Bft) SW67.5 215 0 min 13,6 klux 93 W/m
06.11.2015 14:25 17,1 C 19,5 C 72 % 1018,9 hPa 0,0 l/m 23,5 km/h (4 Bft) SW45 225 0 min 13,1 klux 90 W/m
06.11.2015 14:30 17,1 C 19,4 C 73 % 1018,9 hPa 0,0 l/m 21,9 km/h (4 Bft) SW45 225 0 min 13,1 klux 90 W/m
06.11.2015 14:35 17,1 C 19,5 C 73 % 1018,9 hPa 0,0 l/m 16,6 km/h (3 Bft) SW22.5 230 0 min 10,0 klux 68 W/m
06.11.2015 14:40 17,0 C 19,1 C 72 % 1018,9 hPa 0,0 l/m 20,3 km/h (4 Bft) SW45 220 0 min 9,6 klux 66 W/m
06.11.2015 14:45 17,0 C 18,8 C 73 % 1018,9 hPa 0,0 l/m 25,2 km/h (4 Bft) SW45 215 0 min 7,28 klux 50 W/m
06.11.2015 14:50 17,0 C 18,5 C 73 % 1018,9 hPa 0,0 l/m 19,7 km/h (3 Bft) SW45 220 0 min 9,6 klux 65 W/m
06.11.2015 14:55 16,8 C 18,3 C 73 % 1018,9 hPa 0,0 l/m 22,3 km/h (4 Bft) S-SW45 205 0 min 4,95 klux 34 W/m
06.11.2015 15:00 16,8 C 18,0 C 73 % 1018,9 hPa 0,0 l/m 26,5 km/h (4 Bft) SW67.5 225 0 min 8,45 klux 58 W/m
06.11.2015 15:05 16,8 C 18,0 C 74 % 1018,9 hPa 0,0 l/m 26,8 km/h (4 Bft) SW67.5 220 0 min 6,32 klux 43 W/m
06.11.2015 15:10 16,8 C 18,0 C 74 % 1018,9 hPa 0,0 l/m 25,8 km/h (4 Bft) S-SW67.5 210 0 min 6,83 klux 47 W/m
06.11.2015 15:15 16,8 C 18,1 C 74 % 1018,9 hPa 0,0 l/m 22,5 km/h (4 Bft) SW22.5 215 0 min 8,74 klux 60 W/m
06.11.2015 15:20 16,8 C 18,2 C 74 % 1018,9 hPa 0,0 l/m 25,2 km/h (4 Bft) SW45 225 0 min 6,76 klux 46 W/m
06.11.2015 15:25 16,8 C 18,3 C 75 % 1018,9 hPa 0,0 l/m 17,6 km/h (3 Bft) S-SW45 205 0 min 12,7 klux 87 W/m
06.11.2015 15:30 16,8 C 18,8 C 75 % 1018,9 hPa 0,0 l/m 15,9 km/h (3 Bft) SW45 215 0 min 12,2 klux 83 W/m
06.11.2015 15:35 16,9 C 18,9 C 76 % 1018,9 hPa 0,0 l/m 18,5 km/h (3 Bft) SW67.5 225 0 min 7,70 klux 53 W/m
06.11.2015 15:40 16,9 C 18,3 C 76 % 1018,9 hPa 0,0 l/m 18,5 km/h (3 Bft) SW67.5 225 0 min 4,99 klux 34 W/m
06.11.2015 15:45 16,8 C 18,0 C 75 % 1018,9 hPa 0,0 l/m 20,5 km/h (4 Bft) SW45 215 0 min 6,28 klux 43 W/m
06.11.2015 15:50 16,7 C 17,9 C 75 % 1018,9 hPa 0,0 l/m 21,2 km/h (4 Bft) SW45 220 0 min 5,79 klux 40 W/m
06.11.2015 15:55 16,7 C 17,6 C 75 % 1018,9 hPa 0,0 l/m 21,1 km/h (4 Bft) SW22.5 215 0 min 3,46 klux 24 W/m
06.11.2015 16:00 16,7 C 17,5 C 75 % 1018,9 hPa 0,0 l/m 15,1 km/h (3 Bft) S-SW45 205 0 min 6,42 klux 44 W/m
06.11.2015 16:05 16,7 C 17,5 C 75 % 1018,9 hPa 0,0 l/m 16,1 km/h (3 Bft) S-SW45 200 0 min 6,91 klux 47 W/m
06.11.2015 16:10 16,8 C 17,5 C 74 % 1018,9 hPa 0,0 l/m 20,3 km/h (4 Bft) S-SW22.5 210 0 min 6,57 klux 45 W/m
06.11.2015 16:15 16,8 C 17,3 C 74 % 1018,9 hPa 0,0 l/m 13,7 km/h (3 Bft) S-SO22.5 160 5 min 8,58 klux 59 W/m
06.11.2015 16:20 16,8 C 16,9 C 74 % 1018,9 hPa 0,0 l/m 14,8 km/h (3 Bft) S22.5 180 0 min 3,90 klux 27 W/m
06.11.2015 16:25 16,7 C 16,2 C 74 % 1018,9 hPa 0,0 l/m 18,2 km/h (3 Bft) S-SW45 195 0 min 3,27 klux 22 W/m
06.11.2015 16:30 16,7 C 15,9 C 74 % 1018,9 hPa 0,0 l/m 16,5 km/h (3 Bft) S22.5 190 0 min 2,37 klux 16 W/m
06.11.2015 16:35 16,5 C 15,5 C 75 % 1018,9 hPa 0,0 l/m 17,7 km/h (3 Bft) S22.5 185 0 min 2,15 klux 15 W/m
06.11.2015 16:40 16,5 C 15,5 C 75 % 1018,9 hPa 0,0 l/m 14,0 km/h (3 Bft) S22.5 185 0 min 2,34 klux 16 W/m
06.11.2015 16:45 16,5 C 15,3 C 75 % 1018,9 hPa 0,0 l/m 12,2 km/h (2 Bft) S22.5 185 0 min 1,43 klux 10 W/m
06.11.2015 16:50 16,3 C 15,1 C 75 % 1018,9 hPa 0,0 l/m 14,0 km/h (3 Bft) S22.5 180 0 min 1,00 klux 7 W/m
06.11.2015 16:55 16,2 C 14,6 C 75 % 1018,9 hPa 0,0 l/m 14,2 km/h (3 Bft) S45 190 0 min 573 lux 0 W/m
06.11.2015 17:00 16,1 C 14,4 C 75 % 1018,9 hPa 0,0 l/m 15,1 km/h (3 Bft) S22.5 180 0 min 363 lux 0 W/m
06.11.2015 17:05 16,1 C 14,5 C 75 % 1018,9 hPa 0,0 l/m 14,6 km/h (3 Bft) S22.5 185 0 min 255 lux 0 W/m
06.11.2015 17:10 16,0 C 14,5 C 75 % 1018,9 hPa 0,0 l/m 14,9 km/h (3 Bft) S22.5 190 0 min 255 lux 0 W/m
06.11.2015 17:15 16,0 C 14,3 C 76 % 1018,9 hPa 0,0 l/m 14,1 km/h (3 Bft) S22.5 185 0 min 55 lux 0 W/m
06.11.2015 17:20 16,0 C 14,5 C 76 % 1018,9 hPa 0,0 l/m 15,2 km/h (3 Bft) S22.5 185 0 min 15 lux 0 W/m
06.11.2015 17:25 16,0 C 15,0 C 75 % 1018,9 hPa 0,0 l/m 13,5 km/h (3 Bft) S22.5 180 0 min 15 lux 0 W/m
06.11.2015 17:30 16,0 C 15,2 C 75 % 1018,9 hPa 0,0 l/m 18,6 km/h (3 Bft) S22.5 185 0 min 5 lux 0 W/m
06.11.2015 17:35 16,0 C 15,3 C 75 % 1018,9 hPa 0,0 l/m 17,6 km/h (3 Bft) S22.5 185 0 min 1 lux 0 W/m
06.11.2015 17:40 16,0 C 15,3 C 75 % 1018,9 hPa 0,0 l/m 17,6 km/h (3 Bft) S22.5 185 0 min 0 lux 0 W/m
06.11.2015 17:45 16,0 C 15,4 C 75 % 1018,9 hPa 0,0 l/m 17,5 km/h (3 Bft) S45 185 0 min 0 lux 0 W/m
06.11.2015 17:50 16,0 C 15,5 C 75 % 1018,9 hPa 0,0 l/m 17,5 km/h (3 Bft) S45 185 0 min 0 lux 0 W/m
06.11.2015 17:55 16,0 C 15,5 C 74 % 1018,9 hPa 0,0 l/m 13,7 km/h (3 Bft) S22.5 180 0 min 0 lux 0 W/m
06.11.2015 18:00 16,1 C 15,6 C 74 % 1018,9 hPa 0,0 l/m 15,5 km/h (3 Bft) S22.5 180 0 min 0 lux 0 W/m
06.11.2015 18:05 16,1 C 15,2 C 74 % 1018,9 hPa 0,0 l/m 15,5 km/h (3 Bft) S22.5 180 0 min 0 lux 0 W/m
06.11.2015 18:10 16,1 C 15,1 C 74 % 1018,9 hPa 0,0 l/m 14,9 km/h (3 Bft) S22.5 170 0 min 0 lux 0 W/m
06.11.2015 18:15 16,0 C 15,0 C 75 % 1018,9 hPa 0,0 l/m 10,2 km/h (2 Bft) S22.5 170 0 min 0 lux 0 W/m
06.11.2015 18:20 16,0 C 14,9 C 75 % 1018,9 hPa 0,0 l/m 15,1 km/h (3 Bft) S22.5 175 0 min 0 lux 0 W/m
06.11.2015 18:25 16,0 C 14,7 C 76 % 1018,9 hPa 0,0 l/m 15,1 km/h (3 Bft) S22.5 175 0 min 0 lux 0 W/m
06.11.2015 18:29 16,0 C 14,7 C 76 % 1018,9 hPa 0,0 l/m 26,6 km/h (4 Bft) S-SW22.5 195 0 min 0 lux 0 W/m
06.11.2015 18:35 16,0 C 14,6 C 77 % 1018,9 hPa 0,0 l/m 18,6 km/h (3 Bft) S-SW45 205 0 min 0 lux 0 W/m
06.11.2015 18:40 16,0 C 14,6 C 77 % 1018,9 hPa 0,0 l/m 23,4 km/h (4 Bft) S-SW22.5 205 0 min 0 lux 0 W/m
06.11.2015 18:45 16,0 C 14,7 C 77 % 1018,9 hPa 0,0 l/m 19,1 km/h (3 Bft) S45 185 0 min 0 lux 0 W/m
06.11.2015 18:50 16,1 C 14,7 C 76 % 1018,9 hPa 0,0 l/m 18,1 km/h (3 Bft) S45 190 0 min 0 lux 0 W/m
06.11.2015 18:55 16,1 C 14,7 C 76 % 1018,9 hPa 0,0 l/m 22,5 km/h (4 Bft) S22.5 185 0 min 0 lux 0 W/m
06.11.2015 18:59 16,1 C 14,6 C 76 % 1018,9 hPa 0,0 l/m 18,8 km/h (3 Bft) S22.5 180 0 min 0 lux 0 W/m
06.11.2015 19:05 16,2 C 14,7 C 76 % 1018,9 hPa 0,0 l/m 15,5 km/h (3 Bft) S22.5 180 0 min 0 lux 0 W/m
06.11.2015 19:10 16,2 C 14,8 C 76 % 1018,9 hPa 0,0 l/m 15,5 km/h (3 Bft) S22.5 180 0 min 0 lux 0 W/m
06.11.2015 19:15 16,2 C 14,9 C 77 % 1018,9 hPa 0,0 l/m 17,0 km/h (3 Bft) S22.5 190 0 min 0 lux 0 W/m
06.11.2015 19:20 16,2 C 15,0 C 77 % 1018,9 hPa 0,0 l/m 17,0 km/h (3 Bft) S22.5 190 0 min 0 lux 0 W/m
06.11.2015 19:24 16,2 C 15,2 C 77 % 1018,9 hPa 0,0 l/m 17,3 km/h (3 Bft) S45 185 0 min 0 lux 0 W/m
06.11.2015 19:30 16,2 C 15,3 C 77 % 1018,9 hPa 0,0 l/m 17,3 km/h (3 Bft) S45 185 0 min 0 lux 0 W/m
06.11.2015 19:35 16,1 C 15,3 C 78 % 1018,9 hPa 0,0 l/m 17,3 km/h (3 Bft) S45 185 0 min 0 lux 0 W/m
06.11.2015 19:40 16,1 C 15,2 C 78 % 1018,9 hPa 0,0 l/m 18,7 km/h (3 Bft) S45 185 0 min 0 lux 0 W/m
06.11.2015 19:45 16,1 C 15,1 C 78 % 1018,9 hPa 0,0 l/m 18,3 km/h (3 Bft) S45 180 0 min 0 lux 0 W/m
06.11.2015 19:50 16,1 C 15,1 C 78 % 1018,9 hPa 0,0 l/m 17,2 km/h (3 Bft) S45 190 0 min 0 lux 0 W/m
06.11.2015 19:55 16,0 C 15,0 C 79 % 1018,9 hPa 0,0 l/m 19,5 km/h (3 Bft) S45 185 0 min 0 lux 0 W/m
06.11.2015 20:00 16,0 C 15,0 C 80 % 1018,9 hPa 0,0 l/m 16,2 km/h (3 Bft) S22.5 190 0 min 0 lux 0 W/m
06.11.2015 20:05 16,0 C 15,0 C 80 % 1018,9 hPa 0,0 l/m 20,4 km/h (4 Bft) S45 190 0 min 0 lux 0 W/m
06.11.2015 20:10 15,9 C 15,0 C 80 % 1018,9 hPa 0,0 l/m 17,4 km/h (3 Bft) S-SW45 195 0 min 0 lux 0 W/m
06.11.2015 20:15 15,9 C 15,1 C 81 % 1018,9 hPa 0,0 l/m 17,4 km/h (3 Bft) S-SW45 195 0 min 0 lux 0 W/m
06.11.2015 20:19 15,9 C 15,1 C 81 % 1018,9 hPa 0,0 l/m 19,9 km/h (4 Bft) S45 190 0 min 0 lux 0 W/m
06.11.2015 20:25 15,9 C 15,1 C 81 % 1018,9 hPa 0,0 l/m 19,9 km/h (4 Bft) S45 190 0 min 0 lux 0 W/m
06.11.2015 20:30 15,9 C 15,1 C 82 % 1018,9 hPa 0,0 l/m 14,1 km/h (3 Bft) S45 180 0 min 0 lux 0 W/m
06.11.2015 20:35 15,9 C 15,1 C 82 % 1018,9 hPa 0,0 l/m 17,0 km/h (3 Bft) S22.5 185 0 min 0 lux 0 W/m
06.11.2015 20:40 15,9 C 15,1 C 82 % 1018,9 hPa 0,0 l/m 17,0 km/h (3 Bft) S22.5 185 0 min 0 lux 0 W/m
06.11.2015 20:45 15,9 C 15,1 C 83 % 1018,9 hPa 0,0 l/m 15,9 km/h (3 Bft) S45 175 0 min 0 lux 0 W/m
06.11.2015 20:50 15,9 C 15,1 C 83 % 1018,9 hPa 0,0 l/m 15,8 km/h (3 Bft) S45 180 0 min 0 lux 0 W/m
06.11.2015 20:55 15,9 C 15,1 C 83 % 1018,9 hPa 0,0 l/m 18,0 km/h (3 Bft) S22.5 180 0 min 0 lux 0 W/m
06.11.2015 21:00 15,7 C 15,0 C 83 % 1018,9 hPa 0,0 l/m 13,0 km/h (3 Bft) S22.5 170 0 min 0 lux 0 W/m
06.11.2015 21:05 15,6 C 15,0 C 83 % 1018,9 hPa 0,0 l/m 10,3 km/h (2 Bft) S22.5 180 0 min 0 lux 0 W/m
06.11.2015 21:10 15,6 C 14,9 C 83 % 1018,9 hPa 0,0 l/m 11,5 km/h (2 Bft) S22.5 175 0 min 0 lux 0 W/m
06.11.2015 21:15 15,4 C 14,9 C 84 % 1018,9 hPa 0,0 l/m 12,2 km/h (2 Bft) S22.5 175 0 min 0 lux 0 W/m
06.11.2015 21:20 15,4 C 14,8 C 84 % 1018,9 hPa 0,0 l/m 12,2 km/h (2 Bft) S22.5 175 0 min 0 lux 0 W/m
06.11.2015 21:25 15,4 C 14,8 C 84 % 1018,9 hPa 0,0 l/m 8,5 km/h (2 Bft) S-SO22.5 160 0 min 0 lux 0 W/m
06.11.2015 21:30 15,4 C 14,8 C 84 % 1018,9 hPa 0,0 l/m 11,8 km/h (2 Bft) S-SO22.5 160 0 min 0 lux 0 W/m
06.11.2015 21:35 15,2 C 14,8 C 85 % 1018,9 hPa 0,4 l/m 11,8 km/h (2 Bft) S-SO22.5 160 0 min 0 lux 0 W/m
06.11.2015 21:40 15,2 C 14,7 C 85 % 1018,9 hPa 0,4 l/m 12,1 km/h (2 Bft) S-SO22.5 160 0 min 0 lux 0 W/m
06.11.2015 21:45 15,0 C 14,6 C 86 % 1018,9 hPa 0,4 l/m 12,1 km/h (2 Bft) S-SO22.5 160 0 min 0 lux 0 W/m
06.11.2015 21:50 15,0 C 14,6 C 86 % 1018,9 hPa 0,0 l/m 13,0 km/h (3 Bft) S-SO22.5 160 0 min 0 lux 0 W/m
06.11.2015 21:55 15,0 C 14,7 C 87 % 1018,9 hPa 0,0 l/m 11,8 km/h (2 Bft) S-SO22.5 160 0 min 0 lux 0 W/m
06.11.2015 22:00 15,0 C 14,7 C 87 % 1018,9 hPa 0,0 l/m 11,0 km/h (2 Bft) S-SO22.5 165 0 min 0 lux 0 W/m
06.11.2015 22:05 15,0 C 14,7 C 87 % 1018,9 hPa 0,0 l/m 11,0 km/h (2 Bft) S-SO22.5 165 0 min 0 lux 0 W/m
06.11.2015 22:10 15,3 C 15,0 C 88 % 1018,9 hPa 0,0 l/m 14,6 km/h (3 Bft) S-SW45 195 0 min 0 lux 0 W/m
06.11.2015 22:15 15,6 C 15,5 C 88 % 1018,9 hPa 0,0 l/m 14,6 km/h (3 Bft) S-SW45 195 0 min 0 lux 0 W/m
06.11.2015 22:20 15,7 C 15,7 C 88 % 1018,9 hPa 0,0 l/m 14,6 km/h (3 Bft) S-SW45 195 0 min 0 lux 0 W/m
06.11.2015 22:25 16,0 C 15,8 C 89 % 1018,9 hPa 0,0 l/m 14,6 km/h (3 Bft) S-SW45 195 0 min 0 lux 0 W/m
06.11.2015 22:30 16,0 C 15,9 C 89 % 1018,9 hPa 0,0 l/m 14,6 km/h (3 Bft) S-SW45 195 0 min 0 lux 0 W/m
06.11.2015 22:35 16,1 C 15,9 C 89 % 1018,9 hPa 0,0 l/m 14,6 km/h (3 Bft) S-SW45 195 0 min 0 lux 0 W/m
06.11.2015 22:39 16,1 C 16,0 C 89 % 1019,9 hPa 0,0 l/m 14,6 km/h (3 Bft) S-SW45 195 0 min 0 lux 0 W/m
06.11.2015 22:45 16,1 C 16,0 C 89 % 1019,9 hPa 0,0 l/m 14,6 km/h (3 Bft) S-SW45 195 0 min 0 lux 0 W/m
06.11.2015 22:50 16,1 C 16,0 C 89 % 1019,9 hPa 0,0 l/m 14,6 km/h (3 Bft) S-SW45 195 0 min 0 lux 0 W/m
06.11.2015 22:55 16,2 C 16,1 C 89 % 1019,9 hPa 0,0 l/m 14,6 km/h (3 Bft) S-SW45 195 0 min 0 lux 0 W/m
06.11.2015 23:00 16,2 C 16,1 C 89 % 1019,9 hPa 0,0 l/m 14,6 km/h (3 Bft) S-SW45 195 0 min 0 lux 0 W/m
06.11.2015 23:05 16,2 C 16,2 C 89 % 1019,9 hPa 0,0 l/m 27,9 km/h (5 Bft) SW67.5 225 0 min 0 lux 0 W/m
06.11.2015 23:10 16,2 C 16,2 C 89 % 1019,9 hPa 0,0 l/m 23,3 km/h (4 Bft) S-SW45 210 0 min 0 lux 0 W/m
06.11.2015 23:15 16,2 C 16,1 C 89 % 1019,9 hPa 0,0 l/m 22,3 km/h (4 Bft) S-SW67.5 210 0 min 0 lux 0 W/m
06.11.2015 23:20 16,3 C 16,3 C 89 % 1019,9 hPa 0,0 l/m 22,3 km/h (4 Bft) S-SW67.5 210 0 min 0 lux 0 W/m
06.11.2015 23:25 16,2 C 16,2 C 89 % 1019,9 hPa 0,0 l/m 22,3 km/h (4 Bft) S-SW67.5 210 0 min 0 lux 0 W/m
06.11.2015 23:30 16,2 C 16,3 C 89 % 1019,9 hPa 0,0 l/m 21,6 km/h (4 Bft) SW45 220 0 min 0 lux 0 W/m
06.11.2015 23:35 16,2 C 16,3 C 89 % 1019,9 hPa 0,0 l/m 21,6 km/h (4 Bft) SW45 220 0 min 0 lux 0 W/m
06.11.2015 23:40 16,4 C 16,4 C 89 % 1019,9 hPa 0,0 l/m 21,6 km/h (4 Bft) SW45 220 0 min 0 lux 0 W/m
06.11.2015 23:45 16,3 C 16,4 C 89 % 1019,9 hPa 0,0 l/m 21,6 km/h (4 Bft) SW45 220 0 min 0 lux 0 W/m
06.11.2015 23:50 16,3 C 16,3 C 89 % 1019,9 hPa 0,0 l/m 21,6 km/h (4 Bft) SW45 220 0 min 0 lux 0 W/m
06.11.2015 23:55 16,4 C 16,3 C 89 % 1019,9 hPa 0,0 l/m 21,6 km/h (4 Bft) SW45 220 0 min 0 lux 0 W/m
06.11.2015 23:59 16,4 C 16,3 C 89 % 1019,9 hPa 0,0 l/m 21,6 km/h (4 Bft) SW45 220 0 min 0 lux 0 W/m
_ Min-Zeit 00:20 00:05 14:25 05:45 - 00:50 - - - - -
Minimum _ 13,4 C 12,5 C 72 % 1016,9 hPa - 7,4 km/h (2 Bft) - - - - -
_ Max-Zeit 14:00 12:35 22:25 22:39 00:10 13:35 - - 12:05 12:05 12:05
Maximum _ 17,3 C 23,4 C 89 % 1019,9 hPa 0,4 l/m 29,2 km/h
SW (5 Bft)
- - 5 min 33,3 klux 228 W/m
Durchschnitt _ 15,1 C 15,6 C 82 % 1018,5 hPa #2,5 l/m 15,8 km/h (3 Bft) S - #15 min. 4,01 klux 72 W/m